Location: Gull Harbor
(47.1000°N, 122.9000°W)
Time: 11:25:05
(UTC-07:00)

Amateur Radio Satellites - All Passes

Search period start: 22 June 2017 10:55
Search period end: 23 June 2017 10:55
Location: Gull Harbor, 47.1000°N, 122.9000°W

Satellite Date Start Highest point End Downlink Frequencies (MHz)
Time Altitude Azimuth
DUCHIFAT 1 22 Jun 10:55:15 10:57:37 15° 60° (ENE) 10:59:59 145.980
TIGRISAT 22 Jun 10:56:52 11:01:11 41° 263° (W) 11:05:38 435.000
AAUSAT CUBESAT 2 22 Jun 10:57:43 10:59:54 14° 299° (WNW) 11:02:06 437.432
NANOSAT C BR1 22 Jun 11:01:04 11:03:59 18° 62° (ENE) 11:06:55 145.865
AIST 2D 22 Jun 11:04:31 11:07:45 33° 70° (ENE) 11:11:00 435.315
HO-68 22 Jun 11:12:54 11:17:18 18° 313° (NW) 11:21:42 435.675
DELFI C3 22 Jun 11:21:13 11:25:04 57° 287° (WNW) 11:28:56 145.870
AO-73 22 Jun 11:25:58 11:28:45 16° 300° (WNW) 11:31:30 145.935
ISS 22 Jun 11:26:53 11:30:09 77° 154° (SSE) 11:33:28 437.550
POLYITAN 1 22 Jun 11:33:57 11:37:56 40° 69° (ENE) 11:41:59 437.675
UNISAT 6 22 Jun 11:39:48 11:42:41 16° 271° (W) 11:45:35 437.425
EO-88 22 Jun 11:40:15 11:43:46 46° 288° (WNW) 11:47:16 145.990 - 145.960
QB50P2 22 Jun 11:44:21 11:48:30 56° 72° (ENE) 11:52:43 145.880/145.840
YUBILEINY 22 Jun 11:44:23 11:51:37 30° 279° (W) 11:58:50 435.215
Tancredo 1 22 Jun 11:51:00 11:53:59 49° 343° (NNW) 11:56:58 437.200
FO-29 22 Jun 11:57:49 12:01:30 16° 277° (W) 12:05:26 435.910
ESTCUBE 1 22 Jun 12:05:50 12:09:45 29° 95° (E) 12:13:38 437.505/2401.250
EO-79 22 Jun 12:10:06 12:14:21 86° 260° (W) 12:18:39 145.935-145.965
LO-87 22 Jun 12:14:42 12:18:19 60° 100° (E) 12:21:55 145.935 - 145.965
BUGSAT 1 22 Jun 12:18:19 12:21:57 31° 67° (ENE) 12:25:39 437.445
Oscar 19 22 Jun 12:23:44 12:27:23 20° 59° (ENE) 12:31:02 437.125/150
VELOX 1 22 Jun 12:25:03 12:26:34 11° 88° (E) 12:28:04 145.980
DUCHIFAT 1 22 Jun 12:28:34 12:32:46 68° 258° (WSW) 12:37:01 145.980
NANOSAT C BR1 22 Jun 12:35:12 12:39:20 51° 260° (W) 12:43:30 145.865
AIST 2D 22 Jun 12:38:34 12:41:04 18° 268° (W) 12:43:34 435.315
AO-7 22 Jun 12:43:51 12:47:14 13° 34° (NNE) 12:50:39 .
Gurwin Techsat 1B 22 Jun 12:48:14 12:52:08 21° 59° (ENE) 12:56:05 435.225
ISS 22 Jun 13:03:43 13:06:51 38° 352° (N) 13:09:59 437.550
POLYITAN 1 22 Jun 13:10:35 13:13:53 22° 267° (W) 13:17:13 437.675
SPROUT 22 Jun 13:11:23 13:15:23 36° 97° (E) 13:19:22 437.525
PCSat 22 Jun 13:19:40 13:24:52 50° 116° (ESE) 13:30:07 145.827
QB50P2 22 Jun 13:22:02 13:24:39 16° 270° (W) 13:27:17 145.880/145.840
Tancredo 1 22 Jun 13:27:10 13:29:59 33° 3° (N) 13:32:48 437.200
ESTCUBE 1 22 Jun 13:42:33 13:46:34 33° 293° (WNW) 13:50:33 437.505/2401.250
LO-87 22 Jun 13:49:45 13:51:18 12° 298° (WNW) 13:52:49 145.935 - 145.965
BUGSAT 1 22 Jun 13:53:48 13:57:19 27° 265° (W) 14:00:53 437.445
VELOX 1 22 Jun 13:59:09 14:03:36 81° 285° (WNW) 14:08:01 145.980
Oscar 19 22 Jun 14:01:04 14:06:12 68° 257° (WSW) 14:11:22 437.125/150
50 SAT 22 Jun 14:04:40 14:08:02 61° 101° (ESE) 14:11:25 437.505
Gurwin Techsat 1B 22 Jun 14:26:21 14:31:37 65° 258° (WSW) 14:36:56 435.225
DX 1 22 Jun 14:30:09 14:34:32 74° 104° (ESE) 14:38:54 434.975-435.025
AO-7 22 Jun 14:30:12 14:37:50 43° 57° (ENE) 14:45:32 .
ITAMSAT 1 22 Jun 14:31:58 14:36:08 25° 61° (ENE) 14:40:19 435.822/435.867
ISS 22 Jun 14:40:36 14:43:47 42° 12° (NNE) 14:46:57 437.550
SO-50 22 Jun 14:46:33 14:49:10 15° 110° (ESE) 14:51:46 436.795
SPROUT 22 Jun 14:47:36 14:51:08 25° 295° (WNW) 14:54:38 437.525
UKube-1 22 Jun 14:54:33 14:58:54 90° 150° (SSE) 15:03:14 .
BEESAT 22 Jun 15:02:39 15:04:48 13° 88° (E) 15:06:56 436.000
Tancredo 1 22 Jun 15:02:50 15:05:54 72° 22° (NNE) 15:08:57 437.200
PCSat 22 Jun 15:03:35 15:08:28 33° 316° (NW) 15:13:24 145.827
VELOX 1 22 Jun 15:38:00 15:39:17 11° 304° (NW) 15:40:36 145.980
50 SAT 22 Jun 15:39:33 15:40:22 11° 299° (WNW) 15:41:10 437.505
DX 1 22 Jun 16:07:48 16:10:09 14° 301° (WNW) 16:12:31 434.975-435.025
ITAMSAT 1 22 Jun 16:10:13 16:15:16 52° 259° (W) 16:20:24 435.822/435.867
ISS 22 Jun 16:17:06 16:20:22 58° 211° (SSW) 16:23:38 437.550
AO-7 22 Jun 16:22:21 16:30:26 54° 258° (WSW) 16:38:37 .
SO-50 22 Jun 16:24:30 16:29:03 77° 310° (NW) 16:33:36 436.795
ITUPSAT 1 22 Jun 16:26:01 16:30:51 76° 103° (ESE) 16:35:38 437.325
UKube-1 22 Jun 16:32:37 16:34:15 12° 303° (WNW) 16:35:53 .
BEESAT 22 Jun 16:38:23 16:43:12 83° 286° (WNW) 16:47:58 436.000
Tancredo 1 22 Jun 16:38:53 16:41:14 20° 221° (SW) 16:43:35 437.200
MOZHAYETS 4 22 Jun 16:39:15 16:43:52 72° 102° (ESE) 16:48:26
PCSat 22 Jun 16:51:43 16:53:38 12° 340° (NNW) 16:55:33 145.827
CUTE-I 22 Jun 16:51:57 16:54:44 15° 54° (NE) 16:57:31 437.470
KKS-1 22 Jun 17:01:53 17:04:51 17° 91° (E) 17:07:48 437.445
CUBESAT XI-V 22 Jun 17:11:21 17:15:26 31° 95° (E) 17:19:30 437.345
DOVE 4 22 Jun 17:12:41 17:16:20 30° 67° (ENE) 17:20:03 437.250
KAITUO 1B 22 Jun 17:18:53 17:20:37 13° 61° (ENE) 17:22:21 145.475/437.950
STARS 22 Jun 17:41:02 17:44:11 19° 92° (E) 17:47:19 437.465
NUDT-PHONESAT 22 Jun 17:57:36 18:00:57 31° 69° (ENE) 18:04:18 437.300
XW-2F 22 Jun 18:02:12 18:05:50 43° 72° (ENE) 18:09:30 145.980 - 146.000
XW-2D 22 Jun 18:03:41 18:07:24 48° 72° (ENE) 18:11:08 145.860 - 145.880
ITUPSAT 1 22 Jun 18:05:09 18:08:06 16° 302° (WNW) 18:11:02 437.325
SO-50 22 Jun 18:07:08 18:10:14 18° 330° (NNW) 18:13:21 436.795
LilacSat-2 22 Jun 18:07:43 18:11:30 56° 73° (ENE) 18:15:19 437.200
HO-68 22 Jun 18:08:52 18:14:48 29° 56° (NE) 18:20:45 435.675
XW-2B 22 Jun 18:12:30 18:16:17 59° 74° (ENE) 18:20:05 145.730 - 145.750
MOZHAYETS 4 22 Jun 18:17:43 18:20:29 16° 301° (WNW) 18:23:13
BEESAT 22 Jun 18:18:08 18:20:13 13° 305° (NW) 18:22:16 436.000
XW-2C 22 Jun 18:27:44 18:31:36 90° 259° (W) 18:35:28 145.795 - 145.815
CUTE-I 22 Jun 18:28:37 18:33:56 81° 74° (ENE) 18:39:19 437.470
KKS-1 22 Jun 18:37:21 18:41:45 56° 288° (WNW) 18:46:08 437.445
CUBESAT XI-V 22 Jun 18:48:43 18:52:48 32° 293° (WNW) 18:56:51 437.345
KAITUO 1B 22 Jun 18:50:23 18:54:09 62° 259° (W) 18:57:56 145.475/437.950
DOVE 4 22 Jun 18:50:31 18:54:03 27° 266° (W) 18:57:41 437.250
CUBEBUG 2 22 Jun 19:01:22 19:04:53 22° 63° (ENE) 19:08:29 437.445
SEEDS 22 Jun 19:13:01 19:16:43 30° 68° (ENE) 19:20:24 437.485
AO-73 22 Jun 19:14:31 19:15:20 10° 56° (NE) 19:16:09 145.935
STARS 22 Jun 19:16:29 19:20:48 50° 290° (WNW) 19:25:06 437.465
CUTE 1.7 + AOD 2 22 Jun 19:23:31 19:27:42 59° 73° (ENE) 19:31:54 437.475
NUDT-PHONESAT 22 Jun 19:31:54 19:34:53 22° 266° (W) 19:37:53 437.300
XW-2F 22 Jun 19:37:43 19:40:11 16° 269° (W) 19:42:40 145.980 - 146.000
XW-2A 22 Jun 19:38:55 19:42:19 65° 75° (ENE) 19:45:46 145.665 - 145.685
XW-2D 22 Jun 19:39:38 19:41:52 15° 269° (W) 19:44:06 145.860 - 145.880
STRAND 1 22 Jun 19:40:53 19:44:45 21° 91° (E) 19:48:35 437.568
UWE-3 22 Jun 19:41:22 19:45:25 32° 67° (ENE) 19:49:33 435.000/436.395/437.385
Oscar 11 22 Jun 19:43:54 19:46:20 15° 60° (ENE) 19:48:45 .
LilacSat-2 22 Jun 19:44:14 19:46:08 13° 270° (W) 19:48:02 437.200
ZACube-1 22 Jun 19:44:30 19:47:56 21° 63° (ENE) 19:51:25 437.345
XW-2B 22 Jun 19:49:13 19:50:51 12° 271° (W) 19:52:30 145.730 - 145.750
HO-68 22 Jun 19:54:48 20:01:59 70° 256° (WSW) 20:09:13 435.675
RS-15 22 Jun 19:56:37 20:02:48 16° 93° (E) 20:09:00 29.354- 29.394
CUTE-I 22 Jun 20:11:36 20:14:38 15° 272° (W) 20:17:44 437.470
AAUSAT CUBESAT 2 22 Jun 20:13:24 20:17:28 62° 74° (ENE) 20:21:34 437.432
PCSat 22 Jun 20:21:35 20:25:31 20° 34° (NNE) 20:29:25 145.827
CUBEBUG 2 22 Jun 20:36:45 20:41:10 49° 262° (W) 20:45:44 437.445
DELFI C3 22 Jun 20:36:52 20:38:38 13° 61° (ENE) 20:40:24 145.870
AO-73 22 Jun 20:46:12 20:50:43 72° 74° (ENE) 20:55:18 145.935
SEEDS 22 Jun 20:48:46 20:52:23 28° 265° (W) 20:56:01 437.485
EO-88 22 Jun 20:49:46 20:50:48 11° 60° (ENE) 20:51:50 145.990 - 145.960
YUBILEINY 22 Jun 20:59:47 21:04:26 16° 72° (ENE) 21:09:06 435.215
CUTE 1.7 + AOD 2 22 Jun 21:01:29 21:03:55 15° 270° (W) 21:06:21 437.475
FO-29 22 Jun 21:16:25 21:20:39 15° 82° (E) 21:24:52 435.910
Oscar 11 22 Jun 21:17:35 21:21:56 70° 259° (WSW) 21:26:17 .
UWE-3 22 Jun 21:17:45 21:21:49 32° 265° (W) 21:26:00 435.000/436.395/437.385
STRAND 1 22 Jun 21:19:13 21:24:18 58° 290° (WNW) 21:29:21 437.568
ZACube-1 22 Jun 21:19:29 21:23:53 49° 261° (W) 21:28:22 437.345
O/OREOS (USA 219) 22 Jun 21:32:24 21:33:47 11° 97° (E) 21:35:11 437.305
SO-50 22 Jun 21:33:32 21:35:12 12° 20° (NNE) 21:36:51 436.795
HO-68 22 Jun 21:47:43 21:51:00 13° 276° (W) 21:54:19 435.675
AAUSAT CUBESAT 2 22 Jun 21:51:19 21:53:21 13° 271° (W) 21:55:23 437.432
UNISAT 6 22 Jun 21:51:57 21:53:25 11° 86° (E) 21:54:52 437.425
PRISM 22 Jun 22:00:16 22:01:38 11° 89° (E) 22:03:00 437.425
AO-85 22 Jun 22:00:23 22:04:20 52° 122° (ESE) 22:08:11 145.980
RS-15 22 Jun 22:00:41 22:12:33 63° 116° (ESE) 22:24:37 29.354- 29.394
M-CUBED/EXP-1 PRIME 22 Jun 22:01:14 22:03:32 16° 99° (E) 22:05:55 437.505
PCSat 22 Jun 22:04:21 22:09:49 77° 56° (NE) 22:15:14 145.827
DELFI C3 22 Jun 22:09:00 22:12:54 68° 258° (WSW) 22:16:49 145.870
BEESAT 3 22 Jun 22:16:17 22:20:02 42° 120° (ESE) 22:23:52 437.485
EO-88 22 Jun 22:20:16 22:23:56 72° 258° (WSW) 22:27:38 145.990 - 145.960
AO-73 22 Jun 22:25:05 22:27:27 14° 272° (W) 22:29:50 145.935
TIGRISAT 22 Jun 22:45:06 22:49:24 34° 96° (E) 22:53:37 435.000
YUBILEINY 22 Jun 22:50:49 22:59:32 71° 94° (E) 23:08:20 435.215
LO-87 22 Jun 22:53:32 22:56:50 37° 71° (ENE) 23:00:09 145.935 - 145.965
NO-84 22 Jun 22:56:59 23:00:18 25° 130° (SE) 23:03:49 435.350 FM
FO-29 22 Jun 22:59:10 23:06:54 69° 102° (ESE) 23:14:44 435.910
STRAND 1 22 Jun 23:02:10 23:02:25 10° 309° (NW) 23:02:39 437.568
BEESAT 2 22 Jun 23:07:54 23:11:47 52° 122° (ESE) 23:15:44 435.950
O/OREOS (USA 219) 22 Jun 23:07:54 23:12:28 86° 291° (WNW) 23:17:02 437.305
ESTCUBE 1 22 Jun 23:07:58 23:12:08 38° 68° (ENE) 23:16:18 437.505/2401.250
SO-50 22 Jun 23:12:45 23:16:57 36° 43° (NE) 23:21:10 436.795
VELOX 1 22 Jun 23:24:41 23:27:24 16° 60° (ENE) 23:30:08 145.980
UNISAT 6 22 Jun 23:26:04 23:30:48 89° 283° (WNW) 23:35:25 437.425
PRISM 22 Jun 23:33:18 23:37:23 72° 287° (WNW) 23:41:29 437.425
M-CUBED/EXP-1 PRIME 22 Jun 23:34:43 23:38:08 44° 294° (WNW) 23:41:47 437.505
AO-85 22 Jun 23:41:48 23:44:58 22° 322° (NW) 23:48:07 145.980
PCSat 22 Jun 23:48:58 23:52:34 18° 254° (WSW) 23:56:09 145.827
EO-79 22 Jun 23:53:23 23:55:18 13° 89° (E) 23:57:12 145.935-145.965
BEESAT 3 22 Jun 23:54:20 23:57:46 27° 319° (NW) 00:01:15 437.485
DX 1 22 Jun 23:55:20 23:57:04 12° 57° (ENE) 23:58:48 434.975-435.025
AIST 2D 22 Jun 23:59:37 00:02:39 26° 95° (E) 00:05:39 435.315
SPROUT 23 Jun 00:07:18 00:11:18 40° 69° (ENE) 00:15:21 437.525
DUCHIFAT 1 23 Jun 00:10:32 00:13:08 16° 90° (E) 00:15:43 145.980
RS-15 23 Jun 00:13:31 00:25:31 55° 322° (NW) 00:37:37 29.354- 29.394
NANOSAT C BR1 23 Jun 00:16:54 00:20:05 20° 92° (E) 00:23:15 145.865
UKube-1 23 Jun 00:18:07 00:20:23 14° 59° (ENE) 00:22:40 .
TIGRISAT 23 Jun 00:21:54 00:26:00 30° 294° (WNW) 00:30:02 435.000
LO-87 23 Jun 00:28:07 00:30:26 16° 268° (W) 00:32:46 145.935 - 145.965
NO-84 23 Jun 00:33:28 00:37:35 68° 329° (NNW) 00:41:56 435.350 FM
50 SAT 23 Jun 00:39:17 00:42:23 35° 70° (ENE) 00:45:30 437.505
FO-29 23 Jun 00:44:49 00:51:23 33° 301° (WNW) 00:58:07 435.910
ESTCUBE 1 23 Jun 00:45:20 00:49:02 25° 266° (W) 00:52:47 437.505/2401.250
BEESAT 2 23 Jun 00:46:32 00:49:49 23° 322° (NW) 00:53:08 435.950
YUBILEINY 23 Jun 00:49:39 00:57:10 30° 297° (WNW) 01:04:45 435.215
O/OREOS (USA 219) 23 Jun 00:50:07 00:52:36 14° 315° (NW) 00:55:04 437.305
POLYITAN 1 23 Jun 00:51:01 00:55:13 49° 100° (E) 00:59:21 437.675
SO-50 23 Jun 00:53:16 00:57:25 36° 242° (WSW) 01:01:33 436.795
VELOX 1 23 Jun 00:59:03 01:03:23 63° 258° (WSW) 01:07:45 145.980
QB50P2 23 Jun 01:01:36 01:05:54 69° 102° (ESE) 01:10:09 145.880/145.840
UNISAT 6 23 Jun 01:04:35 01:06:47 13° 303° (WNW) 01:08:57 437.425
EO-79 23 Jun 01:27:16 01:31:32 70° 286° (WNW) 01:35:47 145.935-145.965
DX 1 23 Jun 01:28:15 01:32:35 88° 250° (WSW) 01:36:57 434.975-435.025
BUGSAT 1 23 Jun 01:31:42 01:35:37 34° 97° (E) 01:39:29 437.445
AIST 2D 23 Jun 01:32:58 01:35:45 22° 293° (WNW) 01:38:30 435.315
SPROUT 23 Jun 01:44:05 01:47:22 21° 267° (W) 01:50:41 437.525
DUCHIFAT 1 23 Jun 01:44:58 01:49:09 56° 288° (WNW) 01:53:18 145.980
UKube-1 23 Jun 01:51:34 01:55:51 73° 257° (WSW) 02:00:10 .
NANOSAT C BR1 23 Jun 01:51:56 01:56:00 43° 290° (WNW) 02:00:02 145.865
ITUPSAT 1 23 Jun 01:59:47 02:03:00 18° 59° (ENE) 02:06:14 437.325
MOZHAYETS 4 23 Jun 02:09:29 02:11:49 14° 58° (ENE) 02:14:07
Oscar 19 23 Jun 02:09:40 02:14:19 33° 96° (E) 02:18:54 437.125/150
BEESAT 23 Jun 02:11:12 02:14:54 23° 62° (ENE) 02:18:37 436.000
NO-84 23 Jun 02:11:57 02:15:46 30° 351° (N) 02:19:41 435.350 FM
50 SAT 23 Jun 02:13:14 02:15:20 15° 267° (W) 02:17:27 437.505
POLYITAN 1 23 Jun 02:27:35 02:30:40 19° 297° (WNW) 02:33:43 437.675
RS-15 23 Jun 02:30:33 02:41:30 34° 355° (N) 02:52:17 29.354- 29.394
QB50P2 23 Jun 02:38:47 02:41:10 15° 300° (WNW) 02:43:32 145.880/145.840
Gurwin Techsat 1B 23 Jun 02:39:28 02:44:28 39° 98° (E) 02:49:26 435.225
BUGSAT 1 23 Jun 03:07:17 03:10:50 26° 294° (WNW) 03:14:22 437.445
ITUPSAT 1 23 Jun 03:35:33 03:40:20 68° 258° (WSW) 03:45:09 437.325
MOZHAYETS 4 23 Jun 03:43:39 03:48:18 86° 259° (WSW) 03:52:59
BEESAT 23 Jun 03:47:42 03:52:21 51° 259° (W) 03:57:03 436.000
Oscar 19 23 Jun 03:48:59 03:53:38 36° 294° (WNW) 03:58:16 437.125/150
NO-84 23 Jun 03:50:18 03:54:16 32° 12° (NNE) 03:58:13 435.350 FM
KKS-1 23 Jun 04:02:36 04:06:07 24° 63° (ENE) 04:09:40 437.445
CUBESAT XI-V 23 Jun 04:17:14 04:21:37 43° 70° (ENE) 04:26:00 437.345
Gurwin Techsat 1B 23 Jun 04:19:37 04:24:20 33° 296° (WNW) 04:29:01 435.225
ITAMSAT 1 23 Jun 04:19:46 04:24:47 43° 99° (E) 04:29:44 435.822/435.867
AO-7 23 Jun 04:20:07 04:28:06 45° 100° (E) 04:36:00 .
STARS 23 Jun 04:40:18 04:43:52 25° 64° (ENE) 04:47:28 437.465
RS-15 23 Jun 04:46:19 04:58:01 45° 29° (NNE) 05:09:13 29.354- 29.394
AO-85 23 Jun 04:48:29 04:51:27 19° 36° (NE) 04:54:30 145.980
BEESAT 3 23 Jun 04:53:30 04:55:46 14° 30° (NNE) 04:58:02 437.485
MOZHAYETS 4 23 Jun 05:25:20 05:26:09 10° 274° (W) 05:26:59
NO-84 23 Jun 05:27:57 05:32:22 79° 31° (NNE) 05:36:41 435.350 FM
KKS-1 23 Jun 05:38:16 05:42:27 41° 261° (W) 05:46:41 437.445
BEESAT 2 23 Jun 05:45:44 05:48:24 17° 33° (NNE) 05:51:04 435.950
CUBESAT XI-V 23 Jun 05:55:27 05:59:10 23° 267° (W) 06:02:53 437.345
ITAMSAT 1 23 Jun 05:59:34 06:04:04 30° 297° (WNW) 06:08:33 435.822/435.867
AO-7 23 Jun 06:12:59 06:20:57 50° 300° (WNW) 06:28:53 .
STARS 23 Jun 06:15:57 06:20:02 38° 262° (W) 06:24:09 437.465
KAITUO 1B 23 Jun 06:21:11 06:21:39 10° 88° (E) 06:22:08 145.475/437.950
AO-85 23 Jun 06:28:10 06:32:14 72° 235° (SW) 06:36:32 145.980
BEESAT 3 23 Jun 06:30:03 06:34:06 69° 51° (NE) 06:38:03 437.485
CUTE-I 23 Jun 06:43:00 06:47:26 25° 93° (E) 06:51:51 437.470
DOVE 4 23 Jun 06:44:14 06:48:59 59° 101° (E) 06:53:59 437.250
NUDT-PHONESAT 23 Jun 06:58:35 07:01:48 27° 95° (E) 07:04:58 437.300
STRAND 1 23 Jun 06:59:22 07:04:07 40° 67° (ENE) 07:08:56 437.568
RS-15 23 Jun 06:59:36 07:11:51 82° 237° (WSW) 07:23:28 29.354- 29.394
XW-2F 23 Jun 07:05:12 07:08:47 40° 98° (E) 07:12:20 145.980 - 146.000
NO-84 23 Jun 07:06:12 07:09:35 22° 231° (SW) 07:12:52 435.350 FM
XW-2D 23 Jun 07:07:10 07:10:50 46° 99° (E) 07:14:28 145.860 - 145.880
LilacSat-2 23 Jun 07:12:01 07:15:46 54° 100° (E) 07:19:27 437.200
XW-2B 23 Jun 07:16:03 07:19:48 57° 100° (E) 07:23:29 145.730 - 145.750
HO-68 23 Jun 07:20:14 07:25:18 20° 89° (E) 07:30:18 435.675
BEESAT 2 23 Jun 07:22:41 07:26:47 86° 56° (NE) 07:30:50 435.950
XW-2C 23 Jun 07:31:21 07:35:10 89° 102° (ESE) 07:38:56 145.795 - 145.815
O/OREOS (USA 219) 23 Jun 07:35:52 07:40:04 38° 57° (ENE) 07:44:14 437.305
KAITUO 1B 23 Jun 07:52:25 07:56:07 66° 286° (WNW) 07:59:47 145.475/437.950
AO-7 23 Jun 08:07:30 08:11:47 15° 323° (NW) 08:16:06 .
BEESAT 3 23 Jun 08:09:02 08:11:09 14° 249° (WSW) 08:13:15 437.485
CUTE-I 23 Jun 08:22:33 08:27:45 50° 291° (WNW) 08:32:55 437.470
DOVE 4 23 Jun 08:22:50 08:26:18 20° 297° (WNW) 08:29:54 437.250
CUBEBUG 2 23 Jun 08:24:31 08:28:44 30° 94° (E) 08:32:50 437.445
SEEDS 23 Jun 08:28:44 08:32:38 37° 97° (E) 08:36:30 437.485
XW-2A 23 Jun 08:30:23 08:33:41 43° 99° (E) 08:36:57 145.665 - 145.685
NUDT-PHONESAT 23 Jun 08:32:34 08:35:36 24° 293° (WNW) 08:38:38 437.300
AO-73 23 Jun 08:33:24 08:34:56 12° 86° (E) 08:36:26 145.935
STRAND 1 23 Jun 08:38:55 08:43:23 30° 265° (W) 08:47:55 437.568
XW-2F 23 Jun 08:40:04 08:42:38 18° 296° (WNW) 08:45:12 145.980 - 146.000
CUTE 1.7 + AOD 2 23 Jun 08:40:51 08:45:05 79° 104° (ESE) 08:49:16 437.475
XW-2D 23 Jun 08:42:19 08:44:41 16° 297° (WNW) 08:47:02 145.860 - 145.880
LilacSat-2 23 Jun 08:47:32 08:49:37 14° 298° (WNW) 08:51:41 437.200
M-CUBED/EXP-1 PRIME 23 Jun 08:49:51 08:52:47 30° 64° (ENE) 08:55:42 437.505
XW-2B 23 Jun 08:51:36 08:53:32 14° 298° (WNW) 08:55:28 145.730 - 145.750
PRISM 23 Jun 08:52:18 08:54:21 14° 60° (ENE) 08:56:24 437.425
UNISAT 6 23 Jun 08:53:00 08:55:46 16° 59° (ENE) 08:58:33 437.425
YUBILEINY 23 Jun 08:57:18 09:05:38 42° 69° (ENE) 09:13:50 435.215
BEESAT 2 23 Jun 09:02:35 09:03:53 11° 251° (WSW) 09:05:11 435.950
Oscar 11 23 Jun 09:02:37 09:05:32 17° 91° (E) 09:08:25 .
UWE-3 23 Jun 09:03:42 09:08:10 44° 98° (E) 09:12:29 435.000/436.395/437.385
ZACube-1 23 Jun 09:05:00 09:08:50 27° 93° (E) 09:12:35 437.345
HO-68 23 Jun 09:06:40 09:13:54 86° 288° (WNW) 09:21:05 435.675
Tancredo 1 23 Jun 09:11:38 09:13:39 16° 137° (SE) 09:15:41 437.200
RS-15 23 Jun 09:13:40 09:22:23 24° 261° (W) 09:30:51 29.354- 29.394
FO-29 23 Jun 09:14:53 09:20:32 41° 63° (ENE) 09:26:54 435.910
O/OREOS (USA 219) 23 Jun 09:15:35 09:19:19 26° 256° (WSW) 09:23:00 437.305
AAUSAT CUBESAT 2 23 Jun 09:27:33 09:31:41 78° 103° (ESE) 09:35:47 437.432
DELFI C3 23 Jun 09:44:34 09:46:10 12° 89° (E) 09:47:47 145.870
TIGRISAT 23 Jun 09:46:14 09:50:33 42° 69° (ENE) 09:54:59 435.000
CUBEBUG 2 23 Jun 10:01:03 10:05:20 34° 293° (WNW) 10:09:33 437.445
XW-2A 23 Jun 10:04:13 10:06:05 14° 296° (WNW) 10:07:56 145.665 - 145.685
SEEDS 23 Jun 10:04:51 10:08:07 23° 295° (WNW) 10:11:23 437.485
AO-73 23 Jun 10:07:16 10:11:47 82° 285° (WNW) 10:16:10 145.935
CUTE 1.7 + AOD 2 23 Jun 10:18:30 10:20:19 13° 301° (WNW) 10:22:07 437.475
PRISM 23 Jun 10:25:05 10:29:07 68° 258° (WSW) 10:33:11 437.425
M-CUBED/EXP-1 PRIME 23 Jun 10:25:05 10:27:21 17° 260° (W) 10:29:36 437.505
UNISAT 6 23 Jun 10:27:17 10:31:53 74° 258° (WSW) 10:36:35 437.425
ISS 23 Jun 10:34:52 10:38:02 47° 147° (SSE) 10:41:13 437.550
AIST 2D 23 Jun 10:37:21 10:39:44 17° 65° (ENE) 10:42:08 435.315
Oscar 11 23 Jun 10:37:46 10:41:57 51° 289° (WNW) 10:46:07 .
UWE-3 23 Jun 10:40:39 10:44:20 24° 296° (WNW) 10:47:57 435.000/436.395/437.385
ZACube-1 23 Jun 10:41:04 10:45:10 35° 292° (WNW) 10:49:12 437.345
Tancredo 1 23 Jun 10:45:51 10:48:54 85° 335° (NNW) 10:51:58 437.200
EO-79 23 Jun 10:48:34 10:51:03 15° 60° (ENE) 10:53:34 145.935-145.965
